AFL359 UIII-UNKL

Flight info

Callsign AFL359
Flight time 1h 21m
Altitude 36000
Route BOGRA4D BOGRA A815 TUTEK A91 SUKOR W176 TISBU/K0709F240 A311 LALOM LALOM2Z
Aircraft A320/M-SDE3FGHIRWY/LB1

Departure

Time 2026-05-09 12:08
Airport Irkutsk International Airport (UIII)

Arrival

Time 2026-05-09 13:30
Airport Krasnoyarsk International Airport (UNKL)
Time Latitude Longitude Altitude Speed Heading
2026-05-09 11:23 52.27183 104.36506 1596 ft 0 kts 200°
2026-05-09 11:56 52.27170 104.36498 1596 ft 6 kts 200°
2026-05-09 11:56 52.27171 104.36499 1596 ft 0 kts 200°
2026-05-09 11:57 52.27179 104.36504 1596 ft 1 kts 200°
2026-05-09 11:57 52.27193 104.36512 1595 ft 2 kts 199°
2026-05-09 11:57 52.27165 104.36495 1597 ft 3 kts 198°
2026-05-09 11:57 52.27126 104.36536 1599 ft 11 kts 112°
2026-05-09 11:58 52.27099 104.36648 1600 ft 10 kts 110°
2026-05-09 11:58 52.27078 104.36746 1603 ft 7 kts 110°
2026-05-09 11:58 52.27061 104.36817 1605 ft 6 kts 110°
2026-05-09 11:58 52.27044 104.36893 1605 ft 8 kts 110°
2026-05-09 11:59 52.27015 104.37019 1605 ft 14 kts 110°
2026-05-09 11:59 52.26989 104.37145 1607 ft 10 kts 90°
2026-05-09 11:59 52.26998 104.37273 1606 ft 12 kts 96°
2026-05-09 11:59 52.26971 104.37398 1608 ft 11 kts 113°
2026-05-09 12:00 52.26942 104.37511 1610 ft 10 kts 112°
2026-05-09 12:00 52.26915 104.37616 1611 ft 9 kts 112°
2026-05-09 12:00 52.26890 104.37713 1613 ft 8 kts 115°
2026-05-09 12:00 52.26848 104.37863 1615 ft 17 kts 114°
2026-05-09 12:01 52.26799 104.38046 1618 ft 16 kts 113°
2026-05-09 12:01 52.26756 104.38208 1621 ft 14 kts 113°
2026-05-09 12:01 52.26719 104.38349 1624 ft 12 kts 113°
2026-05-09 12:01 52.26689 104.38464 1628 ft 10 kts 113°
2026-05-09 12:02 52.26657 104.38582 1630 ft 13 kts 114°
2026-05-09 12:02 52.26614 104.38736 1633 ft 15 kts 114°
2026-05-09 12:02 52.26573 104.38900 1636 ft 15 kts 112°
2026-05-09 12:02 52.26527 104.39073 1639 ft 17 kts 113°
2026-05-09 12:03 52.26474 104.39271 1645 ft 20 kts 113°
2026-05-09 12:03 52.26418 104.39480 1647 ft 19 kts 114°
2026-05-09 12:03 52.26367 104.39675 1648 ft 18 kts 112°
2026-05-09 12:03 52.26311 104.39882 1644 ft 22 kts 114°
2026-05-09 12:04 52.26242 104.40141 1639 ft 25 kts 113°
2026-05-09 12:04 52.26174 104.40398 1640 ft 23 kts 113°
2026-05-09 12:04 52.26113 104.40627 1645 ft 20 kts 112°
2026-05-09 12:04 52.26062 104.40821 1650 ft 17 kts 112°
2026-05-09 12:05 52.26014 104.41000 1656 ft 20 kts 113°
2026-05-09 12:05 52.26008 104.41148 1661 ft 9 kts 54°
2026-05-09 12:05 52.26054 104.41199 1663 ft 2 kts 24°
2026-05-09 12:05 52.26056 104.41200 1663 ft 0 kts 23°
2026-05-09 12:06 52.26076 104.41214 1663 ft 4 kts 23°
2026-05-09 12:06 52.26105 104.41235 1663 ft 4 kts 23°
2026-05-09 12:07 52.26134 104.41257 1664 ft 4 kts 25°
2026-05-09 12:07 52.26191 104.41277 1664 ft 13 kts 356°
2026-05-09 12:07 52.26250 104.41214 1661 ft 2 kts 293°
2026-05-09 12:07 52.26252 104.41204 1661 ft 0 kts 293°
2026-05-09 12:08 52.26349 104.40850 1652 ft 73 kts 293°
2026-05-09 12:08 52.26647 104.39716 1640 ft 139 kts 293°
2026-05-09 12:08 52.27087 104.38062 1848 ft 170 kts 295°
2026-05-09 12:08 52.27581 104.36231 2309 ft 182 kts 294°
2026-05-09 12:09 52.28107 104.34296 2833 ft 195 kts 294°
2026-05-09 12:09 52.28679 104.32230 3467 ft 205 kts 295°
2026-05-09 12:09 52.29273 104.30090 4158 ft 213 kts 295°
2026-05-09 12:10 52.31184 104.23296 6392 ft 228 kts 296°
2026-05-09 12:10 52.31849 104.20959 7157 ft 231 kts 296°
2026-05-09 12:10 52.32566 104.18623 7837 ft 237 kts 306°
2026-05-09 12:11 52.33855 104.16919 8243 ft 251 kts 342°
2026-05-09 12:11 52.35635 104.16767 8689 ft 266 kts 10°
2026-05-09 12:11 52.37460 104.17238 9385 ft 272 kts 360°
2026-05-09 12:11 52.39326 104.16559 10157 ft 277 kts 336°
2026-05-09 12:12 52.41050 104.15171 10858 ft 283 kts 335°
2026-05-09 12:12 52.42874 104.13765 11230 ft 300 kts 338°
2026-05-09 12:12 52.44860 104.12453 11607 ft 316 kts 341°
2026-05-09 12:12 52.46968 104.11230 12262 ft 322 kts 343°
2026-05-09 12:13 52.49086 104.10096 12998 ft 325 kts 344°
2026-05-09 12:13 52.49900 104.09676 13271 ft 326 kts 344°
2026-05-09 12:13 52.52063 104.08592 13979 ft 329 kts 345°
2026-05-09 12:13 52.54243 104.07526 14671 ft 332 kts 345°
2026-05-09 12:14 52.56464 104.06456 15353 ft 335 kts 345°
2026-05-09 12:14 52.58692 104.05391 16016 ft 338 kts 345°
2026-05-09 12:14 52.60947 104.04318 16668 ft 340 kts 345°
2026-05-09 12:14 52.63249 104.03224 17311 ft 343 kts 345°
2026-05-09 12:15 52.65518 104.02146 17926 ft 346 kts 346°
2026-05-09 12:15 52.67841 104.01043 18536 ft 349 kts 346°
2026-05-09 12:15 52.70187 103.99927 19133 ft 352 kts 346°
2026-05-09 12:15 52.72550 103.98804 19696 ft 355 kts 346°
2026-05-09 12:16 52.74929 103.97671 19997 ft 357 kts 346°
2026-05-09 12:16 52.77313 103.96534 20039 ft 356 kts 346°
2026-05-09 12:16 52.79668 103.95410 20049 ft 355 kts 346°
2026-05-09 12:16 52.82059 103.94268 20053 ft 355 kts 346°
2026-05-09 12:17 52.84443 103.93128 20152 ft 360 kts 346°
2026-05-09 12:17 52.86847 103.91979 20701 ft 362 kts 346°
2026-05-09 12:17 52.89231 103.90836 21339 ft 361 kts 346°
2026-05-09 12:17 52.91656 103.89673 21882 ft 364 kts 346°
2026-05-09 12:18 52.94094 103.88502 22393 ft 367 kts 346°
2026-05-09 12:18 52.96552 103.87322 22899 ft 369 kts 346°
2026-05-09 12:18 52.99017 103.86136 23394 ft 372 kts 346°
2026-05-09 12:18 53.01510 103.84937 23876 ft 374 kts 346°
2026-05-09 12:19 53.04003 103.83735 24341 ft 377 kts 346°
2026-05-09 12:19 53.06522 103.82519 24796 ft 379 kts 346°
2026-05-09 12:19 53.09071 103.81286 25240 ft 382 kts 345°
2026-05-09 12:19 53.11615 103.80054 25673 ft 384 kts 345°
2026-05-09 12:20 53.14153 103.78687 26095 ft 387 kts 342°
2026-05-09 12:20 53.16645 103.77068 26502 ft 390 kts 339°
2026-05-09 12:20 53.19138 103.75204 26902 ft 393 kts 337°
2026-05-09 12:20 53.21624 103.73270 27290 ft 395 kts 337°
2026-05-09 12:21 53.24110 103.71320 27665 ft 397 kts 337°
2026-05-09 12:21 53.26612 103.69357 28047 ft 399 kts 337°
2026-05-09 12:21 53.27769 103.68449 28217 ft 400 kts 337°
2026-05-09 12:21 53.30210 103.66531 28547 ft 402 kts 337°
2026-05-09 12:22 53.32774 103.64514 28887 ft 405 kts 337°
2026-05-09 12:22 53.35304 103.62523 29223 ft 407 kts 337°
2026-05-09 12:22 53.37896 103.60483 29526 ft 409 kts 337°
2026-05-09 12:22 53.40449 103.58469 29887 ft 410 kts 337°
2026-05-09 12:23 53.43005 103.56450 30328 ft 408 kts 337°
2026-05-09 12:23 53.45542 103.54338 30764 ft 408 kts 333°
2026-05-09 12:23 53.47958 103.51741 31179 ft 409 kts 326°
2026-05-09 12:23 53.50126 103.48735 31570 ft 410 kts 320°
2026-05-09 12:24 53.52093 103.45260 31948 ft 411 kts 313°
2026-05-09 12:24 53.53800 103.41402 32310 ft 414 kts 307°
2026-05-09 12:24 53.55284 103.37255 32668 ft 414 kts 304°
2026-05-09 12:24 53.56711 103.33025 33013 ft 413 kts 303°
2026-05-09 12:25 53.58110 103.28818 33333 ft 413 kts 303°
2026-05-09 12:25 53.59518 103.24587 33648 ft 412 kts 303°
2026-05-09 12:25 53.60902 103.20437 33951 ft 412 kts 303°
2026-05-09 12:25 53.62317 103.16202 34250 ft 411 kts 303°
2026-05-09 12:26 53.63704 103.12048 34504 ft 411 kts 303°
2026-05-09 12:26 53.65106 103.07851 34717 ft 412 kts 303°
2026-05-09 12:26 53.66522 103.03608 34918 ft 413 kts 303°
2026-05-09 12:26 53.67935 102.99365 35117 ft 414 kts 303°
2026-05-09 12:27 53.69340 102.95139 35311 ft 415 kts 303°
2026-05-09 12:27 53.70748 102.90900 35499 ft 416 kts 303°
2026-05-09 12:27 53.72152 102.86665 35678 ft 416 kts 303°
2026-05-09 12:27 53.73581 102.82346 35853 ft 417 kts 303°
2026-05-09 12:28 53.74996 102.78066 36018 ft 418 kts 303°
2026-05-09 12:28 53.77823 102.69486 36057 ft 419 kts 303°
2026-05-09 12:29 53.80647 102.60872 36062 ft 419 kts 303°
2026-05-09 12:29 53.83469 102.52219 36063 ft 419 kts 303°
2026-05-09 12:30 53.86264 102.43623 36063 ft 419 kts 303°
2026-05-09 12:30 53.90476 102.30617 36064 ft 420 kts 302°
2026-05-09 12:31 53.94667 102.17589 36064 ft 420 kts 302°
2026-05-09 12:32 53.97459 102.08902 36064 ft 420 kts 302°
2026-05-09 12:32 54.00247 102.00191 36064 ft 420 kts 302°
2026-05-09 12:33 54.03031 101.91453 36064 ft 420 kts 302°
2026-05-09 12:33 54.05804 101.82732 36064 ft 420 kts 302°
2026-05-09 12:34 54.08581 101.73988 36064 ft 420 kts 302°
2026-05-09 12:34 54.11349 101.65273 36064 ft 420 kts 302°
2026-05-09 12:35 54.14144 101.56499 36065 ft 420 kts 302°
2026-05-09 12:35 54.16898 101.47781 36065 ft 420 kts 302°
2026-05-09 12:36 54.19661 101.38978 36065 ft 420 kts 302°
2026-05-09 12:36 54.22403 101.30190 36064 ft 420 kts 301°
2026-05-09 12:37 54.25136 101.21377 36064 ft 420 kts 301°
2026-05-09 12:37 54.27875 101.12525 36064 ft 420 kts 301°
2026-05-09 12:38 54.30610 101.03666 36064 ft 420 kts 302°
2026-05-09 12:38 54.33339 100.94795 36064 ft 420 kts 302°
2026-05-09 12:39 54.36055 100.85938 36064 ft 420 kts 302°
2026-05-09 12:39 54.38767 100.77060 36064 ft 420 kts 302°
2026-05-09 12:40 54.41467 100.68187 36064 ft 420 kts 302°
2026-05-09 12:40 54.44170 100.59270 36064 ft 420 kts 302°
2026-05-09 12:41 54.46843 100.50420 36064 ft 420 kts 302°
2026-05-09 12:41 54.49541 100.41453 36064 ft 421 kts 302°
2026-05-09 12:42 54.52220 100.32508 36064 ft 421 kts 301°
2026-05-09 12:42 54.54884 100.23556 36064 ft 421 kts 301°
2026-05-09 12:43 54.57541 100.14602 36068 ft 422 kts 301°
2026-05-09 12:43 54.60215 100.05560 36122 ft 421 kts 300°
2026-05-09 12:44 54.62822 99.96555 36106 ft 422 kts 301°
2026-05-09 12:44 54.65503 99.87535 36073 ft 421 kts 301°
2026-05-09 12:45 54.68165 99.78497 36066 ft 422 kts 301°
2026-05-09 12:45 54.70805 99.69469 36064 ft 422 kts 301°
2026-05-09 12:46 54.73445 99.60393 36064 ft 422 kts 301°
2026-05-09 12:46 54.76074 99.51318 36064 ft 422 kts 301°
2026-05-09 12:47 54.78699 99.42222 36064 ft 422 kts 301°
2026-05-09 12:47 54.81302 99.33173 36063 ft 422 kts 300°
2026-05-09 12:48 54.83917 99.24023 36064 ft 422 kts 300°
2026-05-09 12:48 54.86506 99.14939 36064 ft 422 kts 300°
2026-05-09 12:49 54.89037 99.05702 36064 ft 424 kts 296°
2026-05-09 12:49 54.91154 98.96175 36064 ft 425 kts 294°
2026-05-09 12:50 54.93216 98.86546 36064 ft 425 kts 294°
2026-05-09 12:50 54.95283 98.76877 36064 ft 425 kts 295°
2026-05-09 12:51 54.97329 98.67280 36064 ft 425 kts 295°
2026-05-09 12:51 54.99376 98.57638 36064 ft 425 kts 295°
2026-05-09 12:52 55.01427 98.47938 36063 ft 425 kts 295°
2026-05-09 12:52 55.03460 98.38276 36063 ft 425 kts 295°
2026-05-09 12:53 55.05485 98.28588 36064 ft 426 kts 294°
2026-05-09 12:53 55.07516 98.18813 36064 ft 426 kts 294°
2026-05-09 12:54 55.09524 98.09122 36064 ft 426 kts 294°
2026-05-09 12:54 55.11552 97.99377 36065 ft 426 kts 294°
2026-05-09 12:55 55.13563 97.89690 36064 ft 426 kts 294°
2026-05-09 12:55 55.15563 97.79939 36064 ft 426 kts 294°
2026-05-09 12:56 55.17562 97.70122 36064 ft 426 kts 294°
2026-05-09 12:56 55.19527 97.60413 36064 ft 426 kts 294°
2026-05-09 12:57 55.21493 97.50649 36065 ft 426 kts 294°
2026-05-09 12:57 55.23454 97.40869 36065 ft 426 kts 294°
2026-05-09 12:58 55.25399 97.31094 36064 ft 426 kts 293°
2026-05-09 12:58 55.27370 97.21237 36064 ft 426 kts 293°
2026-05-09 12:59 55.29350 97.11430 36064 ft 426 kts 293°
2026-05-09 12:59 55.31324 97.01611 36064 ft 426 kts 293°
2026-05-09 13:00 55.33290 96.91782 36064 ft 426 kts 293°
2026-05-09 13:00 55.35247 96.81944 36064 ft 426 kts 293°
2026-05-09 13:01 55.37185 96.72149 36064 ft 426 kts 293°
2026-05-09 13:01 55.39122 96.62313 36064 ft 426 kts 293°
2026-05-09 13:02 55.41060 96.52422 36064 ft 426 kts 293°
2026-05-09 13:02 55.42977 96.42589 36064 ft 426 kts 293°
2026-05-09 13:03 55.44894 96.32707 36063 ft 427 kts 292°
2026-05-09 13:03 55.46795 96.22831 36064 ft 427 kts 292°
2026-05-09 13:04 55.48700 96.12904 36064 ft 427 kts 292°
2026-05-09 13:04 55.49654 96.07910 35806 ft 430 kts 292°
2026-05-09 13:04 55.50598 96.02963 35060 ft 433 kts 292°
2026-05-09 13:04 55.51551 95.97941 34387 ft 435 kts 292°
2026-05-09 13:05 55.52519 95.92833 33728 ft 435 kts 292°
2026-05-09 13:05 55.53475 95.87771 33070 ft 435 kts 292°
2026-05-09 13:05 55.54435 95.82684 32399 ft 436 kts 292°
2026-05-09 13:05 55.55378 95.77678 31727 ft 437 kts 292°
2026-05-09 13:06 55.56332 95.72604 31042 ft 437 kts 292°
2026-05-09 13:06 55.57289 95.67493 30347 ft 438 kts 292°
2026-05-09 13:06 55.58248 95.62359 29637 ft 439 kts 292°
2026-05-09 13:06 55.59205 95.57228 28993 ft 438 kts 292°
2026-05-09 13:07 55.60152 95.52128 28523 ft 433 kts 292°
2026-05-09 13:07 55.61074 95.47142 28055 ft 428 kts 292°
2026-05-09 13:07 55.61990 95.42184 27583 ft 424 kts 292°
2026-05-09 13:07 55.62900 95.37251 27112 ft 419 kts 292°
2026-05-09 13:08 55.63803 95.32339 26640 ft 416 kts 291°
2026-05-09 13:08 55.64679 95.27547 26172 ft 412 kts 291°
2026-05-09 13:08 55.65561 95.22714 25707 ft 409 kts 291°
2026-05-09 13:08 55.66426 95.17973 25250 ft 405 kts 291°
2026-05-09 13:09 55.67290 95.13221 24792 ft 402 kts 291°
2026-05-09 13:09 55.68132 95.08580 24343 ft 399 kts 291°
2026-05-09 13:09 55.68977 95.03920 23891 ft 396 kts 291°
2026-05-09 13:09 55.69817 94.99270 23439 ft 393 kts 291°
2026-05-09 13:10 55.70651 94.94647 22985 ft 390 kts 291°
2026-05-09 13:10 55.71464 94.90122 22544 ft 388 kts 291°
2026-05-09 13:10 55.72286 94.85549 22095 ft 385 kts 291°
2026-05-09 13:10 55.73085 94.81078 21656 ft 383 kts 291°
2026-05-09 13:11 55.73890 94.76571 21212 ft 380 kts 291°
2026-05-09 13:11 55.74685 94.72110 20772 ft 377 kts 291°
2026-05-09 13:11 55.75472 94.67682 20334 ft 375 kts 291°
2026-05-09 13:11 55.76247 94.63314 19902 ft 372 kts 290°
2026-05-09 13:12 55.77024 94.58923 19465 ft 370 kts 290°
2026-05-09 13:12 55.77792 94.54569 19031 ft 368 kts 290°
2026-05-09 13:12 55.78554 94.50243 18601 ft 365 kts 290°
2026-05-09 13:12 55.79301 94.45998 18178 ft 363 kts 290°
2026-05-09 13:13 55.80051 94.41721 17751 ft 360 kts 290°
2026-05-09 13:13 55.80791 94.37479 17328 ft 358 kts 290°
2026-05-09 13:13 55.81523 94.33276 16909 ft 356 kts 289°
2026-05-09 13:13 55.82203 94.29389 16510 ft 354 kts 290°
2026-05-09 13:14 55.82938 94.25333 16098 ft 351 kts 290°
2026-05-09 13:14 55.83664 94.21366 15697 ft 349 kts 290°
2026-05-09 13:16 55.88734 93.93444 12902 ft 332 kts 290°
2026-05-09 13:16 55.89430 93.89564 12511 ft 330 kts 290°
2026-05-09 13:16 55.90131 93.85651 12115 ft 328 kts 290°
2026-05-09 13:16 55.90845 93.81773 11720 ft 326 kts 291°
2026-05-09 13:17 55.91600 93.78030 11340 ft 324 kts 292°
2026-05-09 13:17 55.92376 93.74240 10960 ft 321 kts 292°
2026-05-09 13:17 55.93141 93.70505 10583 ft 319 kts 292°
2026-05-09 13:17 55.93892 93.66833 10235 ft 316 kts 292°
2026-05-09 13:18 55.94627 93.63220 10153 ft 302 kts 292°
2026-05-09 13:18 55.94914 93.61809 10133 ft 296 kts 292°
2026-05-09 13:18 55.95252 93.60143 10106 ft 289 kts 292°
2026-05-09 13:18 55.95741 93.57732 10068 ft 279 kts 292°
2026-05-09 13:19 55.96399 93.54491 9798 ft 276 kts 292°
2026-05-09 13:19 55.97047 93.51302 9479 ft 275 kts 292°
2026-05-09 13:19 55.97698 93.48091 9191 ft 272 kts 292°
2026-05-09 13:19 55.98337 93.44926 8877 ft 271 kts 292°
2026-05-09 13:20 55.98969 93.41795 8595 ft 268 kts 292°
2026-05-09 13:20 55.99596 93.38678 8321 ft 265 kts 292°
2026-05-09 13:20 56.00212 93.35602 8041 ft 262 kts 292°
2026-05-09 13:20 56.00827 93.32526 7758 ft 260 kts 291°
2026-05-09 13:21 56.01431 93.29502 7466 ft 259 kts 291°
2026-05-09 13:21 56.02019 93.26445 7148 ft 259 kts 288°
2026-05-09 13:21 56.02487 93.23327 6873 ft 257 kts 285°
2026-05-09 13:21 56.02898 93.20230 6617 ft 253 kts 284°
2026-05-09 13:22 56.03295 93.17197 6332 ft 250 kts 284°
2026-05-09 13:22 56.03688 93.14201 6038 ft 248 kts 284°
2026-05-09 13:22 56.04082 93.11221 5749 ft 246 kts 284°
2026-05-09 13:23 56.05598 92.99663 4709 ft 233 kts 284°
2026-05-09 13:23 56.05994 92.96847 4448 ft 230 kts 288°
2026-05-09 13:24 56.06492 92.94173 4207 ft 226 kts 292°
2026-05-09 13:24 56.07096 92.91599 3954 ft 223 kts 296°
2026-05-09 13:24 56.07767 92.89096 3718 ft 221 kts 296°
2026-05-09 13:24 56.08425 92.86639 3481 ft 217 kts 295°
2026-05-09 13:25 56.09045 92.84197 3241 ft 214 kts 294°
2026-05-09 13:25 56.09622 92.81819 3182 ft 201 kts 294°
2026-05-09 13:25 56.10612 92.77653 3169 ft 162 kts 295°
2026-05-09 13:26 56.11044 92.75838 3165 ft 153 kts 295°
2026-05-09 13:26 56.11452 92.74107 3206 ft 148 kts 295°
2026-05-09 13:26 56.11842 92.72437 3211 ft 142 kts 295°
2026-05-09 13:26 56.12221 92.70818 3148 ft 142 kts 294°
2026-05-09 13:27 56.12600 92.69194 2955 ft 140 kts 294°
2026-05-09 13:27 56.12973 92.67596 2777 ft 140 kts 295°
2026-05-09 13:27 56.13351 92.65979 2601 ft 139 kts 294°
2026-05-09 13:27 56.13728 92.64373 2419 ft 139 kts 295°
2026-05-09 13:28 56.14101 92.62787 2237 ft 139 kts 295°
2026-05-09 13:28 56.14481 92.61179 2041 ft 142 kts 295°
2026-05-09 13:28 56.14861 92.59567 1865 ft 139 kts 296°
2026-05-09 13:28 56.15208 92.57951 1659 ft 138 kts 295°
2026-05-09 13:29 56.15602 92.56356 1475 ft 139 kts 297°
2026-05-09 13:29 56.15981 92.54760 1285 ft 139 kts 295°
2026-05-09 13:29 56.16363 92.53176 1128 ft 139 kts 296°
2026-05-09 13:29 56.16750 92.51576 952 ft 135 kts 296°
2026-05-09 13:30 56.17046 92.50361 948 ft 65 kts 293°
2026-05-09 13:30 56.17144 92.49939 948 ft 29 kts 294°
2026-05-09 13:30 56.17225 92.49601 948 ft 29 kts 293°
2026-05-09 13:30 56.17308 92.49255 948 ft 31 kts 293°
2026-05-09 13:31 56.17395 92.48897 948 ft 28 kts 297°
2026-05-09 13:31 56.17509 92.48678 948 ft 21 kts 324°
2026-05-09 13:31 56.17624 92.48528 948 ft 14 kts 324°
2026-05-09 13:31 56.17635 92.48514 948 ft 0 kts 323°
2026-05-09 13:32 56.17638 92.48509 948 ft 0 kts 323°
2026-05-09 13:32 56.17647 92.48497 948 ft 1 kts 323°
2026-05-09 13:32 56.17651 92.48492 948 ft 0 kts 323°
2026-05-09 13:33 56.17653 92.48489 948 ft 1 kts 323°
2026-05-09 13:33 56.17663 92.48476 948 ft 2 kts 323°
2026-05-09 13:33 56.17668 92.48470 948 ft 0 kts 323°
2026-05-09 13:33 56.17668 92.48468 948 ft 0 kts 323°
2026-05-09 13:34 56.17670 92.48467 948 ft 0 kts 323°
2026-05-09 13:34 56.17675 92.48459 948 ft 1 kts 323°
2026-05-09 13:34 56.17687 92.48444 948 ft 2 kts 323°
2026-05-09 13:34 56.17689 92.48441 948 ft 0 kts 324°
2026-05-09 13:35 56.17698 92.48428 948 ft 3 kts 325°
2026-05-09 13:35 56.17725 92.48402 948 ft 5 kts 339°
2026-05-09 13:35 56.17775 92.48405 948 ft 8 kts 17°
2026-05-09 13:35 56.17806 92.48427 948 ft 2 kts 22°
2026-05-09 13:36 56.17829 92.48444 948 ft 5 kts 23°
2026-05-09 13:36 56.17865 92.48444 948 ft 0 kts 333°
2026-05-09 13:36 56.17872 92.48435 948 ft 7 kts 323°
2026-05-09 13:36 56.17931 92.48404 948 ft 9 kts 18°
2026-05-09 13:37 56.17972 92.48434 948 ft 0 kts 22°
2026-05-09 13:37 56.17977 92.48438 948 ft 0 kts 22°